Location: *
(44.1392°N, 4.8079°E)
Time: 01:38:40
(UTC+00:00)

deb Agena D - Pass Details

Date: 30 January 2022
Orbit: 936 x 1065 km, 100.4° (Epoch: 16 May)

Event Time Altitude Azimuth Distance (km) Brightness Sun altitude
Exits shadow 20:51:58 13° 347° (NNW) 2,639 ? -43.5°
Drops below altitude 10° 20:52:31 10° 346° (NNW) 2,845 ? -43.6°
Sets 20:55:03 0° 346° (NNW) 3,817 ? -44.0°
